West Point, VA

6:01 AM EDT on September 25, 2017 (GMT -0400)
West Point

Weather History for KFYJ - December, 2013

Change the Weather History Date:

Saturday, December 28, 2013

  Actual Average (KJGG) Record (KJGG)
Temperature  
Mean Temperature 45 °F -  
Max Temperature 61 °F 49 °F 77 °F (2008)
Min Temperature 29 °F 30 °F 11 °F (1951)
Degree Days  
Heating Degree Days 20    
Moisture  
Dew Point 24 °F    
Average Humidity 47    
Maximum Humidity 83    
Minimum Humidity 19    
Precipitation  
Precipitation 0.00 in - - ()
Sea Level Pressure  
Sea Level Pressure 30.31 in    
Wind  
Wind Speed 3 mph (SSW)    
Max Wind Speed 10 mph    
Max Gust Speed -    
Visibility 10 miles    
Events      
Averages and records for this station are not official NWS values.
T = Trace of Precipitation, MM = Missing Value Source: NWS Daily Summary

Daily Weather History Graph

Daily Weather History Graph

Search for Another Location

Airport or City:

Trip Planner

Search our weather history database for the weather conditions in past years. The results will help you decide how hot, cold, wet, or windy it might be!

Date:

Astronomy

Dec. 28, 2013 Rise Set
Actual Time 7:20 AM EST 4:56 PM EST
Civil Twilight 6:51 AM EST 5:25 PM EST
Nautical Twilight 6:18 AM EST 5:58 PM EST
Astronomical Twilight 5:47 AM EST 6:30 PM EST
Moon 2:58 AM EST (12/28) 1:43 PM EST (12/28)
Length of Visible Light 10h 34m
Length of Day
9h 35m
Waning Crescent, 19% of the Moon is Illuminated
Dec 28
Waning Crescent
Jan 1
New
Jan 7
First Quarter
Jan 15
Full
Jan 24
Last Quarter

Hourly Weather History & Observations

Time (EST) Temp. Windchill Dew Point Humidity Pressure Visibility Wind Dir Wind Speed Gust Speed Precip Events Conditions
12:15 AM 29.5 °F - 25.0 °F 83% 30.40 in 10.0 mi Calm Calm - N/A   Clear
12:35 AM 31.6 °F - 26.6 °F 82% 30.40 in 10.0 mi Calm Calm - N/A   Clear
12:55 AM 31.8 °F 28.5 °F 25.3 °F 77% 30.40 in 10.0 mi SSW 3.5 mph - N/A   Clear
1:15 AM 36.9 °F - 25.5 °F 64% 30.39 in 10.0 mi Calm Calm - N/A   Clear
1:35 AM 36.9 °F 34.3 °F 25.3 °F 63% 30.39 in 10.0 mi South 3.5 mph - N/A   Clear
1:55 AM 36.7 °F - 25.5 °F 64% 30.39 in 10.0 mi Calm Calm - N/A   Clear
2:15 AM 38.1 °F 35.7 °F 25.5 °F 61% 30.39 in 10.0 mi SSE 3.5 mph - N/A   Clear
2:35 AM 37.4 °F - 26.1 °F 64% 30.38 in 10.0 mi Calm Calm - N/A   Clear
2:55 AM 35.8 °F - 25.0 °F 65% 30.38 in 10.0 mi Calm Calm - N/A   Clear
3:15 AM 36.7 °F - 25.9 °F 65% 30.38 in 10.0 mi Calm Calm - N/A   Clear
3:35 AM 37.0 °F 33.3 °F 25.2 °F 62% 30.38 in 10.0 mi SW 4.6 mph - N/A   Clear
3:55 AM 37.2 °F - 25.5 °F 63% 30.38 in 10.0 mi Calm Calm - N/A   Clear
4:15 AM 36.7 °F - 24.8 °F 62% 30.37 in 10.0 mi Calm Calm - N/A   Clear
4:35 AM 36.5 °F 33.9 °F 24.3 °F 61% 30.37 in 10.0 mi SW 3.5 mph - N/A   Clear
4:55 AM 35.8 °F - 24.3 °F 63% 30.37 in 10.0 mi Calm Calm - N/A   Clear
5:15 AM 35.2 °F - 23.7 °F 63% 30.36 in 10.0 mi Calm Calm - N/A   Clear
5:35 AM 31.5 °F - 23.0 °F 71% 30.37 in 10.0 mi Calm Calm - N/A   Clear
5:55 AM 31.8 °F - 24.4 °F 74% 30.36 in 10.0 mi Calm Calm - N/A   Clear
6:15 AM 32.4 °F - 24.4 °F 73% 30.37 in 10.0 mi Calm Calm - N/A   Clear
6:35 AM 31.6 °F - 24.3 °F 74% 30.37 in 10.0 mi Calm Calm - N/A   Clear
6:55 AM 31.6 °F - 23.5 °F 72% 30.37 in 10.0 mi Calm Calm - N/A   Clear
7:15 AM 36.9 °F - 23.9 °F 59% 30.38 in 10.0 mi Calm Calm - N/A   Clear
7:35 AM 34.7 °F - 22.8 °F 62% 30.38 in 10.0 mi Calm Calm - N/A   Clear
7:55 AM 35.2 °F 32.4 °F 23.0 °F 61% 30.38 in 10.0 mi South 3.5 mph - N/A   Clear
8:15 AM 37.9 °F 35.5 °F 24.8 °F 59% 30.39 in 10.0 mi South 3.5 mph - N/A   Clear
8:35 AM 39.4 °F 37.2 °F 25.3 °F 57% 30.39 in 10.0 mi South 3.5 mph - N/A   Clear
8:55 AM 41.0 °F - 25.9 °F 55% 30.39 in 10.0 mi Calm Calm - N/A   Clear
9:15 AM 43.0 °F 41.3 °F 25.9 °F 51% 30.39 in 10.0 mi SSW 3.5 mph - N/A   Clear
9:35 AM 44.6 °F 42.2 °F 25.5 °F 47% 30.39 in 10.0 mi South 4.6 mph - N/A   Clear
9:55 AM 45.7 °F 43.4 °F 24.8 °F 44% 30.39 in 10.0 mi SW 4.6 mph - N/A   Clear
10:15 AM 47.5 °F - 24.3 °F 40% 30.38 in 10.0 mi WSW 4.6 mph - N/A   Clear
10:35 AM 49.1 °F - 23.5 °F 37% 30.38 in 10.0 mi WSW 5.8 mph - N/A   Clear
10:55 AM 51.3 °F - 22.8 °F 33% 30.37 in 10.0 mi WSW 5.8 mph - N/A   Clear
11:15 AM 53.1 °F - 21.9 °F 30% 30.35 in 10.0 mi WSW 4.6 mph - N/A   Clear
11:35 AM 54.9 °F - 21.0 °F 27% 30.34 in 10.0 mi South 4.6 mph - N/A   Clear
11:55 AM 56.8 °F - 20.3 °F 24% 30.33 in 10.0 mi South 6.9 mph - N/A   Clear
12:15 PM 57.6 °F - 21.2 °F 24% 30.32 in 10.0 mi SSW 9.2 mph - N/A   Clear
12:35 PM 58.1 °F - 20.8 °F 24% 30.31 in 10.0 mi SSW 9.2 mph - N/A   Clear
12:55 PM 56.8 °F - 21.6 °F 25% 30.30 in 10.0 mi South 5.8 mph - N/A   Clear
1:15 PM 58.3 °F - 21.0 °F 24% 30.29 in 10.0 mi SSW 6.9 mph - N/A   Clear
1:35 PM 60.3 °F - 19.9 °F 21% 30.28 in 10.0 mi SW 6.9 mph - N/A   Clear
1:55 PM 61.7 °F - 18.5 °F 19% 30.26 in 10.0 mi SSW 10.4 mph - N/A   Clear
2:15 PM 61.7 °F - 18.7 °F 19% 30.26 in 10.0 mi SSW 9.2 mph - N/A   Clear
2:35 PM 61.2 °F - 19.0 °F 20% 30.25 in 10.0 mi SSW 6.9 mph - N/A   Clear
2:55 PM 60.8 °F - 19.6 °F 20% 30.24 in 10.0 mi SW 10.4 mph - N/A   Clear
3:15 PM 61.3 °F - 20.3 °F 21% 30.26 in 10.0 mi SW 9.2 mph - N/A   Clear
3:35 PM 60.8 °F - 19.4 °F 20% 30.26 in 10.0 mi SSW 9.2 mph - N/A   Clear
3:55 PM 59.5 °F - 19.6 °F 21% 30.26 in 10.0 mi SW 8.1 mph - N/A   Clear
4:15 PM 58.3 °F - 19.9 °F 23% 30.26 in 10.0 mi SW 6.9 mph - N/A   Clear
4:35 PM 56.5 °F - 21.7 °F 26% 30.26 in 10.0 mi SSW 4.6 mph - N/A   Clear
4:55 PM 55.0 °F - 22.1 °F 28% 30.26 in 10.0 mi South 5.8 mph - N/A   Clear
5:15 PM 54.5 °F - 21.6 °F 28% 30.25 in 10.0 mi South 5.8 mph - N/A   Clear
5:35 PM 53.1 °F - 22.1 °F 30% 30.25 in 10.0 mi South 4.6 mph - N/A   Clear
5:55 PM 51.6 °F - 24.6 °F 35% 30.26 in 10.0 mi Calm Calm - N/A   Clear
6:15 PM 47.7 °F - 26.2 °F 43% 30.26 in 10.0 mi Calm Calm - N/A   Clear
6:35 PM 44.1 °F - 28.8 °F 55% 30.26 in 10.0 mi Calm Calm - N/A   Clear
6:55 PM 43.7 °F - 29.5 °F 57% 30.25 in 10.0 mi Calm Calm - N/A   Clear
7:15 PM 44.1 °F - 29.8 °F 57% 30.25 in 10.0 mi Calm Calm - N/A   Clear
7:35 PM 41.5 °F - 30.6 °F 65% 30.24 in 10.0 mi Calm Calm - N/A   Clear
7:55 PM 43.9 °F - 30.6 °F 59% 30.24 in 10.0 mi Calm Calm - N/A   Clear
8:15 PM 44.2 °F 42.7 °F 29.8 °F 57% 30.24 in 10.0 mi South 3.5 mph - N/A   Clear
8:35 PM 44.6 °F - 30.2 °F 57% 30.24 in 10.0 mi Calm Calm - N/A   Clear
8:55 PM 50.5 °F - 27.1 °F 40% 30.24 in 10.0 mi South 4.6 mph - N/A   Clear
9:15 PM 51.3 °F - 27.5 °F 40% 30.24 in 10.0 mi SSW 3.5 mph - N/A   Clear
9:35 PM 51.8 °F - 26.6 °F 38% 30.24 in 10.0 mi South 4.6 mph - N/A   Clear
9:55 PM 52.0 °F - 26.1 °F 37% 30.23 in 10.0 mi South 4.6 mph - N/A   Clear
10:15 PM 51.8 °F - 25.9 °F 37% 30.22 in 10.0 mi South 4.6 mph - N/A   Clear
10:35 PM 51.8 °F - 25.5 °F 36% 30.21 in 10.0 mi South 5.8 mph - N/A   Clear
10:55 PM 51.3 °F - 26.4 °F 38% 30.20 in 10.0 mi South 4.6 mph - N/A   Clear
11:15 PM 51.3 °F - 26.2 °F 38% 30.20 in 10.0 mi South 3.5 mph - N/A   Clear
11:35 PM 50.9 °F - 26.2 °F 38% 30.19 in 10.0 mi Calm Calm - N/A   Mostly Cloudy
11:55 PM 48.0 °F - 30.6 °F 51% 30.18 in 10.0 mi Calm Calm - N/A   Overcast